This is the latest recevied weather packets stored in our database for station/object IU5JAE-13. If no packets are shown the sender has not sent any weather packets the latest 10 day(s).
| Time | Temp. | Humidity | Pressure | Rain* | Wind** | Luminosity | Snow |
|---|---|---|---|---|---|---|---|
| 1777545919 | 20° C | 45% | 1019.9 hPa | 0 mm | - | 699 W/m² | - |
| 1777545316 | 20.56° C | 43% | 1020.1 hPa | 0 mm | - | 647 W/m² | - |
| 1777544734 | 20° C | 46% | 1020 hPa | 0 mm | - | 682 W/m² | - |
| 1777544131 | 18.89° C | 46% | 1020.1 hPa | 0 mm | - | 673 W/m² | - |
| 1777543529 | 18.89° C | 46% | 1019.9 hPa | 0 mm | - | 655 W/m² | - |
| 1777542927 | 19.44° C | 47% | 1020 hPa | 0 mm | - | 643 W/m² | - |
| 1777542324 | 19.44° C | 46% | 1020 hPa | 0 mm | - | 628 W/m² | - |
| 1777541722 | 19.44° C | 46% | 1020 hPa | 0 mm | - | 618 W/m² | - |
| 1777541119 | 18.89° C | 46% | 1020 hPa | 0 mm | - | 602 W/m² | - |
| 1777540517 | 19.44° C | 46% | 1020 hPa | 0 mm | - | 584 W/m² | - |
| 1777539935 | 18.89° C | 46% | 1020 hPa | 0 mm | - | 564 W/m² | - |
| 1777539332 | 18.33° C | 46% | 1019.9 hPa | 0 mm | - | 543 W/m² | - |
| 1777538730 | 18.33° C | 47% | 1019.9 hPa | 0 mm | - | 523 W/m² | - |
| 1777538127 | 18.33° C | 51% | 1019.8 hPa | 0 mm | - | 506 W/m² | - |
| 1777537525 | 17.78° C | 51% | 1019.9 hPa | 0 mm | - | 490 W/m² | - |
| 1777536923 | 17.78° C | 56% | 1019.9 hPa | 0 mm | - | 477 W/m² | - |
| 1777536321 | 17.78° C | 56% | 1019.7 hPa | 0 mm | - | 490 W/m² | - |
| 1777535718 | 17.78° C | 60% | 1019.4 hPa | 0 mm | - | 467 W/m² | - |
| 1777535115 | 17.22° C | 59% | 1019.4 hPa | 0 mm | - | 459 W/m² | - |
| 1777534533 | 17.22° C | 61% | 1019.3 hPa | 0 mm | - | 421 W/m² | - |
| 1777533931 | 17.78° C | 60% | 1019.3 hPa | 0 mm | - | 372 W/m² | - |
| 1777533328 | 17.22° C | 62% | 1019.2 hPa | 0 mm | - | 337 W/m² | - |
| 1777532726 | 17.22° C | 61% | 1019.2 hPa | 0 mm | - | 315 W/m² | - |
| 1777532123 | 16.11° C | 63% | 1019.2 hPa | 0 mm | - | 276 W/m² | - |
| 1777531521 | 15.56° C | 64% | 1019.1 hPa | 0 mm | - | 265 W/m² | - |
* Rain latest hour (hover to see other rain measurements)
** Current wind speed in m/s (hover to see current wind gust speed)